Regional Weather Roundup
Issued by NWS

Home | Current Version | Previous Version | Text Only | Print | Product List | Glossary Off
Versions: 1 2 3 4 5 6 7 8 9 10 11 12 13 14 15 16 17 18 19 20 21 22 23 24 25 26 27 28 29 30 31 32 33 34 35 36 37 38 39 40 41 42 43 44 45 46 47 48 49 50

000
ASUS43 KLMK 211410
RWRKY
KENTUCKY REGIONAL WEATHER ROUNDUP
NATIONAL WEATHER SERVICE LOUISVILLE KY
1000 AM EDT THU SEP 21 2017

NOTE "FAIR" INDICATES FEW OR NO CLOUDS BELOW 12,000 FEET
WITH NO SIGNIFICANT WEATHER AND/OR OBSTRUCTIONS TO VISIBILITY.

KYZ001>023-026-027-061>063-070>075-211500-
WESTERN AND SOUTH CENTRAL KENTUCKY

CITY           SKY/WX    TMP DP  RH WIND       PRES   REMARKS
PADUCAH        SUNNY     80  71  74 SW6       30.06R
HENDERSON      SUNNY     79  73  82 CALM      30.08R
OWENSBORO      PTSUNNY   77  72  84 SE6       30.10R
HOPKINSVILLE   SUNNY     80  72  75 CALM      30.08S
BOWLING GREEN  PTSUNNY   75  72  90 CALM      30.10S
GLASGOW        SUNNY     76  71  84 CALM      30.12R
$$

KYZ024-025-028>034-038-045-046-053-211500-
NORTH CENTRAL KENTUCKY

CITY           SKY/WX    TMP DP  RH WIND       PRES   REMARKS
LOUISVILLE/SDF MOSUNNY   77  70  79 SE3       30.10S
LOUISVILLE/LOU SUNNY     77  72  84 CALM      30.11S
FORT KNOX      MOSUNNY   75  71  86 CALM      30.10S
$$

KYZ035>037-039>044-047>052-055>060-089>105-211500-
NORTHEAST KENTUCKY

CITY           SKY/WX    TMP DP  RH WIND       PRES   REMARKS
LEXINGTON      SUNNY     77  69  76 CALM      30.14R
COVINGTON      SUNNY     76  72  87 S5        30.12R
FRANKFORT      SUNNY     76  68  76 CALM      30.12R
$$

KYZ054-064>069-076>088-106>120-211500-
SOUTHEAST KENTUCKY

CITY           SKY/WX    TMP DP  RH WIND       PRES   REMARKS
JACKSON        SUNNY     72  67  84 CALM      30.16R
LONDON         SUNNY     73  67  81 CALM      30.15R
SOMERSET       SUNNY     70  70 100 CALM      30.15S
MIDDLESBORO    FOG       65  65 100 CALM      30.17R VSB 1/2
MONTICELLO     SUNNY     72  69  90 VRB5      30.15S
$$




USA.gov is the U.S. government's official web portal to all federal, state and local government web resources and services.